Flag for U.S.A. Weather past 2 weeks in Wailuku, Hawaii, U.S.A.

Now
90 °F

Scattered clouds.


Feels Like: 99 °F
Forecast: 76 / 89 °F
Wind: 10 mph from Northeast

Location: Kahului Airport

Current Time: Sep 3, 2015 at 12:06:33 PM

Latest Report: Sep 3, 2015 at 10:54 AM


Visibility: 10 mi

Pressure: 29.92 "Hg

Humidity: 59%

Dew point: 74 °F

Location of WailukuLocation

Historic Weather in Wailuku — Graph

°F

Wailuku temperature yesterday

Maximum temperature yesterday: 90 °F (at 11:54 AM)
Minimum temperature yesterday: 77 °F (at 10:54 PM)
Average temperature yesterday: 83 °F

Past Weeks' High & Low Weather Summary

 TemperatureHumidityPressure
High97 °F (Aug 22, 12:54 PM)94% (Aug 23, 10:54 PM)29.98 "Hg (Aug 23, 10:54 PM)
Low72 °F (Aug 26, 5:54 AM)48% (Aug 22, 12:54 PM)29.77 "Hg (Sep 1, 5:18 PM)
Average82 °F75%29.89 "Hg
* Reported Aug 19 9:54 AM — Sep 3 9:54 AM, Wailuku, Weather by CustomWeather, © 2015

Note: Actual official high and low records may vary slightly from our data, if they occured in-between our weather recording intervals... More about our weather records

Advertising

Wailuku weather history for previous 24 hours

 ConditionsComfort  
Time TempWeatherWind HumidityBarometerVisibility
9:54 AM
Thu, Sep 3
88 °FScattered clouds.6 mph57%29.91 "Hg10 mi
8:54 AM85 °FPassing clouds.8 mph68%29.93 "Hg10 mi
7:54 AM80 °FPassing clouds.No wind79%29.91 "Hg10 mi
6:54 AM75 °FScattered clouds.3 mph90%29.90 "Hg10 mi
5:54 AM73 °FPassing clouds.5 mph93%29.90 "Hg10 mi
4:54 AM75 °FClear.5 mph88%29.89 "Hg10 mi
3:54 AM76 °FClear.No wind88%29.89 "Hg10 mi
2:54 AM76 °FClear.7 mph85%29.89 "Hg10 mi
1:54 AM78 °FOvercast.No wind82%29.91 "Hg10 mi
12:54 AM76 °FClear.5 mph85%29.90 "Hg10 mi
11:54 PM
Wed, Sep 2
77 °FClear.No wind85%29.92 "Hg10 mi
10:54 PM77 °FClear.5 mph88%29.92 "Hg10 mi
9:54 PM78 °FClear.No wind84%29.92 "Hg10 mi
8:54 PM81 °FClear.No wind74%29.91 "Hg10 mi
7:54 PM82 °FPassing clouds.5 mph72%29.90 "Hg10 mi
6:54 PM83 °FPassing clouds.6 mph72%29.87 "Hg10 mi
5:54 PM84 °FScattered clouds.5 mph72%29.86 "Hg10 mi
5:31 PM85 °FScattered clouds.8 mph72%29.84 "Hg10 mi
4:54 PM85 °FScattered clouds.8 mph72%29.84 "Hg10 mi
3:54 PM88 °FScattered clouds.15 mph63%29.83 "Hg10 mi
2:54 PM89 °FScattered clouds.16 mph61%29.84 "Hg10 mi
1:54 PM89 °FScattered clouds.17 mph63%29.85 "Hg10 mi
12:54 PM90 °FScattered clouds.16 mph59%29.86 "Hg10 mi
Weather by CustomWeather, © 2015

See weather overviewHow to use our weather pages